QFA641 YSSY-AGGH

Flight info

Callsign QFA641
Flight time N/A
Altitude 33000
Route OLSEM Y193 BANDA H252 GOMOL/N0479F320 H252 BN Q67 BIXAD/N0479F330 A598 PONUX DCT 20S156E 15S158E DCT DASSA DASSA1B
Aircraft B738/M-SDE2E3FGHIRWXY/LB1

Departure

Time 2026-05-07 08:34
Airport Sydney Kingsford Smith International Airport (YSSY)

Arrival

Time N/A
Airport Honiara International Airport (AGGH)
Time Latitude Longitude Altitude Speed Heading
2026-05-07 06:53 -33.93934 151.16684 29 ft 0 kts 262°
2026-05-07 08:19 -33.93933 151.16695 29 ft 3 kts 262°
2026-05-07 08:20 -33.93929 151.16722 29 ft 3 kts 257°
2026-05-07 08:20 -33.93923 151.16748 29 ft 3 kts 242°
2026-05-07 08:20 -33.93911 151.16766 29 ft 3 kts 188°
2026-05-07 08:20 -33.93908 151.16768 29 ft 3 kts 165°
2026-05-07 08:21 -33.93930 151.16776 29 ft 3 kts 162°
2026-05-07 08:21 -33.93952 151.16784 29 ft 3 kts 163°
2026-05-07 08:21 -33.93959 151.16786 29 ft 0 kts 164°
2026-05-07 08:26 -33.93966 151.16788 29 ft 4 kts 165°
2026-05-07 08:26 -33.94026 151.16807 29 ft 8 kts 165°
2026-05-07 08:26 -33.94058 151.16834 29 ft 9 kts 117°
2026-05-07 08:27 -33.94045 151.16910 29 ft 10 kts 74°
2026-05-07 08:27 -33.94023 151.17004 29 ft 15 kts 75°
2026-05-07 08:27 -33.93985 151.17164 28 ft 24 kts 73°
2026-05-07 08:27 -33.93936 151.17368 29 ft 26 kts 74°
2026-05-07 08:28 -33.93899 151.17524 27 ft 18 kts 74°
2026-05-07 08:28 -33.93866 151.17667 28 ft 17 kts 74°
2026-05-07 08:28 -33.93833 151.17807 29 ft 18 kts 74°
2026-05-07 08:28 -33.93799 151.17949 29 ft 17 kts 74°
2026-05-07 08:29 -33.93767 151.18084 29 ft 17 kts 74°
2026-05-07 08:29 -33.93735 151.18220 29 ft 18 kts 74°
2026-05-07 08:29 -33.93697 151.18380 29 ft 21 kts 74°
2026-05-07 08:29 -33.93658 151.18546 29 ft 21 kts 74°
2026-05-07 08:30 -33.93619 151.18710 29 ft 20 kts 73°
2026-05-07 08:30 -33.93596 151.18804 29 ft 0 kts 74°
2026-05-07 08:30 -33.93594 151.18815 29 ft 5 kts 79°
2026-05-07 08:30 -33.93596 151.18879 29 ft 10 kts 104°
2026-05-07 08:31 -33.93653 151.18944 27 ft 8 kts 165°
2026-05-07 08:31 -33.93660 151.18947 27 ft 0 kts 165°
2026-05-07 08:32 -33.93662 151.18947 27 ft 2 kts 165°
2026-05-07 08:32 -33.93708 151.18961 25 ft 13 kts 171°
2026-05-07 08:32 -33.93764 151.18937 25 ft 6 kts 234°
2026-05-07 08:32 -33.93768 151.18925 26 ft 0 kts 254°
2026-05-07 08:33 -33.93783 151.18865 26 ft 25 kts 254°
2026-05-07 08:34 -33.93897 151.18377 29 ft 94 kts 254°
2026-05-07 08:34 -33.94120 151.17382 66 ft 146 kts 258°
2026-05-07 08:34 -33.94382 151.16140 645 ft 160 kts 257°
2026-05-07 08:34 -33.94648 151.14804 1421 ft 165 kts 255°
2026-05-07 08:35 -33.94872 151.13476 2308 ft 165 kts 264°
2026-05-07 08:35 -33.94542 151.12048 2595 ft 199 kts 296°
2026-05-07 08:35 -33.93477 151.10796 2857 ft 225 kts 311°
2026-05-07 08:35 -33.92223 151.09594 3288 ft 234 kts 312°
2026-05-07 08:36 -33.90796 151.08550 3731 ft 253 kts 333°
2026-05-07 08:36 -33.88982 151.08352 4211 ft 272 kts 359°
2026-05-07 08:36 -33.87090 151.08614 4795 ft 275 kts
2026-05-07 08:36 -33.85259 151.09359 5248 ft 286 kts 36°
2026-05-07 08:37 -33.83974 151.11170 5550 ft 294 kts 70°
2026-05-07 08:37 -33.83217 151.13468 6200 ft 298 kts 74°
2026-05-07 08:37 -33.82461 151.15796 7005 ft 299 kts 73°
2026-05-07 08:37 -33.81664 151.18121 7745 ft 302 kts 71°
2026-05-07 08:38 -33.80820 151.20455 8464 ft 306 kts 70°
2026-05-07 08:38 -33.79938 151.22799 9181 ft 310 kts 69°
2026-05-07 08:38 -33.79022 151.25168 9911 ft 314 kts 69°
2026-05-07 08:38 -33.78080 151.27564 10440 ft 324 kts 68°
2026-05-07 08:39 -33.77076 151.30102 10612 ft 346 kts 68°
2026-05-07 08:39 -33.76004 151.32787 10786 ft 367 kts 68°
2026-05-07 08:39 -33.74881 151.35588 10926 ft 387 kts 67°
2026-05-07 08:39 -33.73681 151.38566 11084 ft 405 kts 67°
2026-05-07 08:40 -33.72426 151.41672 11302 ft 419 kts 67°
2026-05-07 08:40 -33.71149 151.44825 11932 ft 422 kts 66°
2026-05-07 08:40 -33.69856 151.48016 12472 ft 426 kts 66°
2026-05-07 08:40 -33.68505 151.51169 13256 ft 424 kts 63°
2026-05-07 08:41 -33.67282 151.54368 13935 ft 424 kts 71°
2026-05-07 08:41 -33.66145 151.57681 14240 ft 435 kts 65°
2026-05-07 08:41 -33.64477 151.60743 14627 ft 443 kts 48°
2026-05-07 08:41 -33.62118 151.63111 15172 ft 445 kts 30°
2026-05-07 08:42 -33.59400 151.64888 15753 ft 445 kts 28°
2026-05-07 08:42 -33.56741 151.66818 16239 ft 449 kts 32°
2026-05-07 08:42 -33.54120 151.68893 16700 ft 453 kts 32°
2026-05-07 08:42 -33.51475 151.71006 16989 ft 461 kts 30°
2026-05-07 08:43 -33.48646 151.72809 17436 ft 461 kts 20°
2026-05-07 08:43 -33.45616 151.73994 17961 ft 459 kts 10°
2026-05-07 08:43 -33.42496 151.74877 18417 ft 462 kts
2026-05-07 08:43 -33.39363 151.75806 18757 ft 466 kts 11°
2026-05-07 08:44 -33.36204 151.76794 19099 ft 471 kts 11°
2026-05-07 08:44 -33.33031 151.77814 19394 ft 476 kts 11°
2026-05-07 08:44 -33.29800 151.78860 19552 ft 484 kts 10°
2026-05-07 08:44 -33.26535 151.79920 19897 ft 487 kts 10°
2026-05-07 08:45 -33.23257 151.80985 20314 ft 489 kts 10°
2026-05-07 08:45 -33.19964 151.82052 20657 ft 492 kts 10°
2026-05-07 08:45 -33.16684 151.83111 20959 ft 496 kts 10°
2026-05-07 08:45 -33.13339 151.84189 21279 ft 499 kts 10°
2026-05-07 08:46 -33.09976 151.85271 21463 ft 505 kts
2026-05-07 08:46 -33.06555 151.86368 21607 ft 511 kts
2026-05-07 08:46 -33.03114 151.87472 21951 ft 513 kts
2026-05-07 08:46 -32.99682 151.88574 22322 ft 514 kts
2026-05-07 08:47 -32.96216 151.89687 22619 ft 517 kts
2026-05-07 08:47 -32.92741 151.90800 22862 ft 520 kts
2026-05-07 08:47 -32.89229 151.91924 23021 ft 523 kts
2026-05-07 08:47 -32.85707 151.93051 23339 ft 525 kts
2026-05-07 08:48 -32.82206 151.94173 24047 ft 515 kts
2026-05-07 08:48 -32.78783 151.95276 24647 ft 507 kts
2026-05-07 08:48 -32.75360 151.96369 24739 ft 512 kts
2026-05-07 08:48 -32.71890 151.97469 24802 ft 518 kts
2026-05-07 08:49 -32.68412 151.98571 24983 ft 519 kts
2026-05-07 08:49 -32.64920 151.99680 25217 ft 520 kts
2026-05-07 08:49 -32.61425 152.00791 25484 ft 519 kts
2026-05-07 08:49 -32.57941 152.01900 25791 ft 518 kts
2026-05-07 08:50 -32.54468 152.03005 26113 ft 516 kts
2026-05-07 08:50 -32.51006 152.04105 26412 ft 515 kts
2026-05-07 08:50 -32.47545 152.05203 26676 ft 515 kts
2026-05-07 08:50 -32.44080 152.06300 26899 ft 514 kts
2026-05-07 08:51 -32.40633 152.07393 27277 ft 511 kts
2026-05-07 08:51 -32.37205 152.08479 27649 ft 509 kts
2026-05-07 08:51 -32.33790 152.09558 27971 ft 507 kts
2026-05-07 08:51 -32.30382 152.10633 28262 ft 507 kts
2026-05-07 08:52 -32.26971 152.11707 28571 ft 507 kts
2026-05-07 08:52 -32.23613 152.12765 28907 ft 505 kts
2026-05-07 08:52 -32.20252 152.13829 29512 ft 495 kts
2026-05-07 08:52 -32.16957 152.14877 30202 ft 487 kts
2026-05-07 08:53 -32.13691 152.15907 30493 ft 486 kts
2026-05-07 08:53 -32.10415 152.16931 30661 ft 488 kts
2026-05-07 08:53 -32.07131 152.17954 30874 ft 488 kts
2026-05-07 08:53 -32.03856 152.18978 31212 ft 485 kts
2026-05-07 08:54 -32.00608 152.19998 31571 ft 481 kts
2026-05-07 08:54 -31.97417 152.21006 32175 ft 471 kts
2026-05-07 08:54 -31.94275 152.22000 32686 ft 465 kts
2026-05-07 08:54 -31.91158 152.22977 32971 ft 463 kts
2026-05-07 08:55 -31.88040 152.23945 33138 ft 464 kts
2026-05-07 08:55 -31.84914 152.24913 33302 ft 465 kts
2026-05-07 08:55 -31.81790 152.25883 33559 ft 463 kts
2026-05-07 08:55 -31.78680 152.26853 33891 ft 460 kts
2026-05-07 08:56 -31.75627 152.27814 34448 ft 447 kts
2026-05-07 08:56 -31.72642 152.28759 34852 ft 442 kts 360°
2026-05-07 08:56 -31.69684 152.29683 35114 ft 438 kts 359°
2026-05-07 08:56 -31.66729 152.30595 35103 ft 441 kts 359°
2026-05-07 08:57 -31.60750 152.32430 35135 ft 447 kts 360°
2026-05-07 08:57 -31.54713 152.34294 35098 ft 450 kts
2026-05-07 08:58 -31.48652 152.36178 35122 ft 451 kts
2026-05-07 08:58 -31.43613 152.37743 35127 ft 450 kts
2026-05-07 08:59 -31.37567 152.39617 35128 ft 449 kts
2026-05-07 08:59 -31.31537 152.41481 35052 ft 447 kts
2026-05-07 09:00 -31.25541 152.43331 35114 ft 445 kts
2026-05-07 09:00 -31.19559 152.45173 35122 ft 444 kts
2026-05-07 09:01 -31.13595 152.47006 35105 ft 442 kts
2026-05-07 09:01 -31.07654 152.48833 35055 ft 441 kts
2026-05-07 09:02 -31.01730 152.50651 35114 ft 440 kts
2026-05-07 09:02 -30.95836 152.52455 35119 ft 442 kts
2026-05-07 09:03 -30.89881 152.54276 35131 ft 443 kts
2026-05-07 09:03 -30.83922 152.56101 35091 ft 443 kts
2026-05-07 09:04 -30.77966 152.57950 35110 ft 445 kts
2026-05-07 09:04 -30.72023 152.60096 35116 ft 448 kts
2026-05-07 09:05 -30.66092 152.62319 35129 ft 447 kts
2026-05-07 09:05 -30.60159 152.64505 35081 ft 447 kts
2026-05-07 09:06 -30.54224 152.66664 35108 ft 447 kts
2026-05-07 09:06 -30.48280 152.68813 35117 ft 448 kts
2026-05-07 09:07 -30.42322 152.70964 35111 ft 449 kts
2026-05-07 09:07 -30.36346 152.73123 35110 ft 449 kts
2026-05-07 09:08 -30.30384 152.75274 35114 ft 449 kts
2026-05-07 09:08 -30.24417 152.77423 35107 ft 450 kts
2026-05-07 09:09 -30.18436 152.79575 35102 ft 450 kts
2026-05-07 09:09 -30.12451 152.81726 35092 ft 450 kts
2026-05-07 09:10 -30.06472 152.83873 35101 ft 449 kts
2026-05-07 09:10 -30.00543 152.85998 35092 ft 449 kts
2026-05-07 09:11 -29.94584 152.88132 35086 ft 448 kts
2026-05-07 09:11 -29.88627 152.90258 35076 ft 447 kts
2026-05-07 09:12 -29.82679 152.92366 35076 ft 447 kts
2026-05-07 09:12 -29.76735 152.94470 35074 ft 446 kts
2026-05-07 09:13 -29.70798 152.96570 35080 ft 447 kts
2026-05-07 09:13 -29.64859 152.98670 35056 ft 446 kts
2026-05-07 09:14 -29.59011 153.00735 35066 ft 446 kts
2026-05-07 09:14 -29.53075 153.02827 35067 ft 447 kts
2026-05-07 09:15 -29.47123 153.04923 35069 ft 448 kts
2026-05-07 09:15 -29.41165 153.07020 35063 ft 448 kts
2026-05-07 09:16 -29.35199 153.09117 35070 ft 449 kts
2026-05-07 09:16 -29.29220 153.11216 35084 ft 449 kts
2026-05-07 09:17 -29.23232 153.13319 35071 ft 451 kts
2026-05-07 09:17 -29.17231 153.15433 35048 ft 451 kts
2026-05-07 09:18 -29.11274 153.17531 35057 ft 451 kts
2026-05-07 09:18 -29.05269 153.19641 35063 ft 452 kts
2026-05-07 09:19 -28.99263 153.21748 35065 ft 452 kts
2026-05-07 09:19 -28.93244 153.23859 35042 ft 452 kts
2026-05-07 09:20 -28.87233 153.25964 35055 ft 452 kts
2026-05-07 09:20 -28.81214 153.28067 35069 ft 452 kts
2026-05-07 09:21 -28.75193 153.30169 35063 ft 453 kts
2026-05-07 09:21 -28.69167 153.32271 35045 ft 452 kts
2026-05-07 09:22 -28.63149 153.34369 35065 ft 452 kts
2026-05-07 09:22 -28.57129 153.36463 35072 ft 452 kts
2026-05-07 09:23 -28.51111 153.38556 35061 ft 452 kts
2026-05-07 09:23 -28.45095 153.40643 35029 ft 452 kts
2026-05-07 09:24 -28.39117 153.42716 35040 ft 452 kts
2026-05-07 09:24 -28.33050 153.44816 35036 ft 453 kts
2026-05-07 09:25 -28.27057 153.46890 35025 ft 454 kts
2026-05-07 09:25 -28.21016 153.48951 34992 ft 448 kts 359°
2026-05-07 09:26 -28.18022 153.49422 35027 ft 423 kts 346°
2026-05-07 09:26 -28.15142 153.49246 35025 ft 408 kts 339°
2026-05-07 09:26 -28.12405 153.48599 35064 ft 395 kts 329°
2026-05-07 09:26 -28.09845 153.47528 35082 ft 392 kts 328°
2026-05-07 09:27 -28.04719 153.45332 35064 ft 396 kts 328°
2026-05-07 09:28 -27.96945 153.42067 35061 ft 398 kts 328°
2026-05-07 09:28 -27.91738 153.39900 35064 ft 399 kts 328°
2026-05-07 09:29 -27.86531 153.37735 35065 ft 399 kts 328°
2026-05-07 09:29 -27.81319 153.35569 35069 ft 398 kts 328°
2026-05-07 09:30 -27.76126 153.33407 35068 ft 396 kts 327°
2026-05-07 09:30 -27.71102 153.30975 35072 ft 391 kts 325°
2026-05-07 09:31 -27.66160 153.28500 35077 ft 391 kts 325°
2026-05-07 09:31 -27.61189 153.26028 35067 ft 391 kts 325°
2026-05-07 09:32 -27.56209 153.23564 35077 ft 391 kts 325°
2026-05-07 09:32 -27.51219 153.21101 35080 ft 392 kts 325°
2026-05-07 09:33 -27.46224 153.18638 35076 ft 392 kts 325°
2026-05-07 09:33 -27.41216 153.16181 35051 ft 394 kts 327°
2026-05-07 09:33 -27.38543 153.15276 35047 ft 409 kts 336°
2026-05-07 09:34 -27.35703 153.14776 34991 ft 417 kts 341°
2026-05-07 09:34 -27.29777 153.14867 35059 ft 437 kts 353°
2026-05-07 09:35 -27.23723 153.15859 35073 ft 440 kts 355°
2026-05-07 09:35 -27.17674 153.16889 35063 ft 440 kts 354°
2026-05-07 09:36 -27.11626 153.17875 35071 ft 439 kts 354°
2026-05-07 09:36 -27.05574 153.18837 35076 ft 439 kts 354°
2026-05-07 09:37 -26.99531 153.19793 35083 ft 439 kts 354°
2026-05-07 09:37 -26.93508 153.20745 35085 ft 439 kts 354°
2026-05-07 09:38 -26.87454 153.21702 35085 ft 440 kts 354°
2026-05-07 09:38 -26.81387 153.22661 35064 ft 440 kts 354°
2026-05-07 09:39 -26.75325 153.23618 35077 ft 440 kts 354°
2026-05-07 09:39 -26.69237 153.24771 35070 ft 454 kts
2026-05-07 09:39 -26.66206 153.25971 35073 ft 472 kts 11°
2026-05-07 09:40 -26.63221 153.27532 35087 ft 474 kts 12°
2026-05-07 09:40 -26.57268 153.30748 35043 ft 476 kts 12°
2026-05-07 09:41 -26.51312 153.33945 35071 ft 475 kts 12°
2026-05-07 09:41 -26.45340 153.37102 35083 ft 474 kts 12°
2026-05-07 09:42 -26.39367 153.40235 35083 ft 475 kts 12°
2026-05-07 09:42 -26.33385 153.43367 35082 ft 475 kts 12°
2026-05-07 09:43 -26.27405 153.46497 35072 ft 475 kts 12°
2026-05-07 09:43 -26.21430 153.49621 35083 ft 475 kts 12°
2026-05-07 09:44 -26.15480 153.52729 35069 ft 475 kts 12°
2026-05-07 09:44 -26.09495 153.55851 35086 ft 475 kts 12°
2026-05-07 09:45 -26.03510 153.58971 35072 ft 475 kts 12°
2026-05-07 09:45 -25.97525 153.62086 35069 ft 475 kts 12°
2026-05-07 09:46 -25.91542 153.65197 35075 ft 475 kts 12°
2026-05-07 09:46 -25.86562 153.67784 35074 ft 475 kts 12°
2026-05-07 09:47 -25.80561 153.70897 35052 ft 475 kts 12°
2026-05-07 09:47 -25.74571 153.74003 35068 ft 475 kts 12°
2026-05-07 09:48 -25.68571 153.77109 35070 ft 476 kts 12°
2026-05-07 09:48 -25.62565 153.80214 35077 ft 476 kts 12°
2026-05-07 09:49 -25.56555 153.83319 35030 ft 477 kts 12°
2026-05-07 09:49 -25.50588 153.86400 35065 ft 476 kts 12°
2026-05-07 09:50 -25.44546 153.89514 35069 ft 476 kts 12°
2026-05-07 09:50 -25.38546 153.92604 35071 ft 475 kts 12°
2026-05-07 09:51 -25.32590 153.95667 35073 ft 475 kts 12°
2026-05-07 09:51 -25.26596 153.98746 35070 ft 475 kts 12°
2026-05-07 09:52 -25.20687 154.01779 35067 ft 475 kts 12°
2026-05-07 09:52 -25.14703 154.04846 35068 ft 474 kts 12°
2026-05-07 09:53 -25.08714 154.07913 35064 ft 474 kts 12°
2026-05-07 09:53 -25.02732 154.10974 35064 ft 473 kts 12°
2026-05-07 09:54 -24.96761 154.14024 35067 ft 474 kts 12°
2026-05-07 09:54 -24.90780 154.17077 35069 ft 474 kts 12°
2026-05-07 09:55 -24.84792 154.20130 35065 ft 475 kts 12°
2026-05-07 09:55 -24.78795 154.23186 35048 ft 475 kts 12°
2026-05-07 09:56 -24.72797 154.26239 35057 ft 475 kts 12°
2026-05-07 09:56 -24.66736 154.28904 35072 ft 464 kts
2026-05-07 09:57 -24.60623 154.31159 35068 ft 463 kts
2026-05-07 09:57 -24.54546 154.33380 35068 ft 464 kts
2026-05-07 09:58 -24.48424 154.35668 35059 ft 463 kts
2026-05-07 09:58 -24.42322 154.37977 35059 ft 464 kts
2026-05-07 09:59 -24.36219 154.40293 35064 ft 464 kts
2026-05-07 09:59 -24.30112 154.42606 35062 ft 465 kts
2026-05-07 10:00 -24.23999 154.44919 35056 ft 464 kts
2026-05-07 10:00 -24.17927 154.47213 35062 ft 464 kts
2026-05-07 10:01 -24.11817 154.49519 35066 ft 465 kts
2026-05-07 10:01 -24.05696 154.51825 35060 ft 465 kts
2026-05-07 10:02 -23.99588 154.54126 35034 ft 465 kts
2026-05-07 10:02 -23.93461 154.56431 35059 ft 465 kts
2026-05-07 10:03 -23.87338 154.58733 35064 ft 465 kts
2026-05-07 10:03 -23.81212 154.61033 35063 ft 466 kts
2026-05-07 10:04 -23.75079 154.63333 35064 ft 466 kts
2026-05-07 10:04 -23.68939 154.65634 35057 ft 466 kts
2026-05-07 10:05 -23.62813 154.67928 35058 ft 466 kts
2026-05-07 10:05 -23.56670 154.70225 35062 ft 466 kts
2026-05-07 10:06 -23.50533 154.72517 35061 ft 467 kts
2026-05-07 10:06 -23.44393 154.74809 35040 ft 467 kts
2026-05-07 10:07 -23.38246 154.77101 35055 ft 467 kts
2026-05-07 10:07 -23.32092 154.79393 35060 ft 468 kts
2026-05-07 10:08 -23.25970 154.81671 35065 ft 468 kts
2026-05-07 10:08 -23.19800 154.83965 35060 ft 469 kts
2026-05-07 10:09 -23.13640 154.86253 35060 ft 469 kts
2026-05-07 10:09 -23.07452 154.88550 35063 ft 469 kts
2026-05-07 10:10 -23.01267 154.90842 35058 ft 470 kts
2026-05-07 10:10 -22.95078 154.93134 35060 ft 470 kts
2026-05-07 10:11 -22.88878 154.95428 35039 ft 471 kts
2026-05-07 10:11 -22.82683 154.97718 35053 ft 471 kts
2026-05-07 10:12 -22.76490 155.00006 35051 ft 471 kts
2026-05-07 10:12 -22.70360 155.02267 35055 ft 471 kts
2026-05-07 10:13 -22.64193 155.04539 35058 ft 472 kts
2026-05-07 10:13 -22.57977 155.06828 35057 ft 472 kts